Mattoon, IL

11:31 AM CDT on October 20, 2019 (GMT -0500)
Coles County Memorial

Weather History for KMTO - May, 2019

Change the Weather History Date:

Sunday, May 5, 2019

  Actual Average Record
Temperature  
Mean Temperature 57 °F 60 °F  
Max Temperature 70 °F 70 °F 93 °F (1952)
Min Temperature 43 °F 50 °F 35 °F (1957)
Degree Days  
Heating Degree Days 8 6  
Month to date heating degree days 34 32  
Since 1 July heating degree days 5421 5294  
Cooling Degree Days 0 1  
Month to date cooling degree days 1 5  
Year to date cooling degree days 6 19  
Growing Degree Days 7 (Base 50)    
Moisture  
Dew Point 46 °F    
Average Humidity 69    
Maximum Humidity 100    
Minimum Humidity 37    
Precipitation  
Precipitation 0.00 in 0.16 in 1.30 in (1958)
Month to date precipitation 0.47 0.79  
Year to date precipitation 9.49 10.77  
Sea Level Pressure  
Sea Level Pressure 29.90 in    
Wind  
Wind Speed 3 mph (NW)    
Max Wind Speed 8 mph    
Max Gust Speed 12 mph    
Visibility 5 miles    
Events Fog    
T = Trace of Precipitation, MM = Missing Value Source: NWS Daily Summary

Daily Weather History Graph

Daily Weather History Graph

Search for Another Location

Airport or City:

Astronomy

May. 05, 2019 Rise Set
Actual Time 5:49 AM CDT 7:50 PM CDT
Civil Twilight 5:20 AM CDT 8:20 PM CDT
Nautical Twilight 4:44 AM CDT 8:56 PM CDT
Astronomical Twilight 4:05 AM CDT 9:35 PM CDT
Moon 6:33 AM CDT (5/5) 8:43 PM CDT (5/5)
Length of Visible Light 14h 59m
Length of Day
14h 00m
New Moon, 1% of the Moon is Illuminated
May 5
New Moon
May 11
First Quarter
May 18
Full
May 26
Last Quarter
Jun 3
New

Hourly Weather History & Observations

Time (CDT) Temp. Windchill Dew Point Humidity Pressure Visibility Wind Dir Wind Speed Gust Speed Precip Events Conditions
12:53 AM 48.0 °F - 46.9 °F 96% 29.89 in 1.0 mi Calm Calm - N/A   Mist
1:00 AM 48.0 °F - 48.0 °F 100% 29.89 in 0.5 mi Calm Calm - N/A Fog Fog
1:09 AM 48.0 °F - 46.9 °F 96% 29.88 in 0.8 mi Calm Calm - N/A   Clear
1:20 AM 48.0 °F - 46.9 °F 96% 29.88 in 0.2 mi Calm Calm - N/A Fog Fog
1:43 AM 46.9 °F - 46.9 °F 100% 29.88 in 1.0 mi Calm Calm - N/A   Clear
1:47 AM 46.4 °F 45.2 °F 46.4 °F 100% 29.88 in 3.0 mi NW 3.5 mph - N/A   Clear
1:53 AM 46.9 °F - 46.0 °F 97% 29.88 in 3.0 mi Calm Calm - N/A   Clear
1:58 AM 46.9 °F - 46.0 °F 97% 29.88 in 1.8 mi Calm Calm - N/A   Clear
2:07 AM 46.9 °F - 46.0 °F 97% 29.88 in 2.0 mi Calm Calm - N/A   Clear
2:17 AM 46.0 °F - 46.0 °F 100% 29.88 in 1.0 mi Calm Calm - N/A   Clear
2:25 AM 46.0 °F - 45.0 °F 96% 29.88 in 0.5 mi Calm Calm - N/A Fog Fog
2:53 AM 46.0 °F 44.8 °F 45.0 °F 96% 29.89 in 0.5 mi WNW 3.5 mph - N/A Fog Fog
3:07 AM 46.0 °F 44.8 °F 45.0 °F 96% 29.89 in 0.2 mi WNW 3.5 mph - N/A Fog Fog
3:17 AM 46.0 °F 44.8 °F 45.0 °F 96% 29.89 in 0.5 mi NW 3.5 mph - N/A Fog Fog
3:46 AM 45.0 °F 42.6 °F 44.1 °F 97% 29.89 in 1.2 mi NW 4.6 mph - N/A   Clear
3:53 AM 45.0 °F 42.6 °F 44.1 °F 97% 29.90 in 2.0 mi NW 4.6 mph - N/A   Clear
4:05 AM 45.0 °F 42.6 °F 44.1 °F 97% 29.89 in 3.0 mi NW 4.6 mph - N/A   Clear
4:25 AM 44.1 °F 42.5 °F 43.0 °F 96% 29.89 in 3.0 mi NW 3.5 mph - N/A   Clear
4:50 AM 46.4 °F - 44.6 °F 93% 29.89 in 2.0 mi Calm Calm - N/A   Clear
4:53 AM 45.0 °F - 44.1 °F 97% 29.90 in 1.8 mi Calm Calm - N/A   Clear
5:37 AM 45.0 °F - 44.1 °F 97% 29.90 in 0.5 mi Calm Calm - N/A Fog Fog
5:53 AM 45.0 °F - 44.1 °F 97% 29.90 in 0.8 mi Calm Calm - N/A   Clear
6:34 AM 45.0 °F - 44.1 °F 97% 29.90 in 2.0 mi Calm Calm - N/A   Clear
6:53 AM 46.9 °F - 46.0 °F 97% 29.91 in 4.0 mi North - - N/A   Clear
7:53 AM 53.1 °F - 48.9 °F 86% 29.93 in 10.0 mi North 3.5 mph - N/A   Clear
8:53 AM 57.0 °F - 50.0 °F 77% 29.94 in 10.0 mi North 4.6 mph - N/A   Clear
9:53 AM 61.0 °F - 50.0 °F 67% 29.94 in 10.0 mi North 4.6 mph - N/A   Clear
10:53 AM 63.0 °F - 48.0 °F 58% 29.94 in 10.0 mi ENE 3.5 mph - N/A   Clear
11:53 AM 66.0 °F - 46.9 °F 50% 29.93 in 10.0 mi North 5.8 mph - N/A   Clear
12:53 PM 66.9 °F - 44.1 °F 44% 29.92 in 10.0 mi NNW 4.6 mph - N/A   Clear
1:53 PM 68.0 °F - 45.0 °F 43% 29.91 in 10.0 mi Calm Calm - N/A   Clear
2:53 PM 70.0 °F - 44.1 °F 39% 29.90 in 10.0 mi NNE 4.6 mph - N/A   Clear
3:53 PM 70.0 °F - 43.0 °F 38% 29.89 in 10.0 mi Variable 4.6 mph - N/A   Clear
4:53 PM 68.0 °F - 45.0 °F 43% 29.88 in 10.0 mi Calm Calm - N/A   Clear
5:53 PM 69.1 °F - 43.0 °F 39% 29.88 in 10.0 mi Calm Calm - N/A   Clear
6:53 PM 66.9 °F - 45.0 °F 45% 29.89 in 10.0 mi SW 3.5 mph - N/A   Clear
7:53 PM 64.9 °F - 46.0 °F 50% 29.90 in 10.0 mi WSW 3.5 mph - N/A   Clear
8:53 PM 60.1 °F - 48.0 °F 64% 29.91 in 10.0 mi Calm Calm - N/A   Clear
9:53 PM 55.0 °F - 50.0 °F 83% 29.93 in 10.0 mi Calm Calm - N/A   Clear
10:53 PM 55.0 °F - 50.0 °F 83% 29.93 in 10.0 mi Calm Calm - N/A   Clear
11:53 PM 53.1 °F - 48.9 °F 86% 29.94 in 10.0 mi South 3.5 mph - N/A   Clear